Погода в Талдыкоргане

Казахстан     45°01′04″N   78°22′55″E
В апреле 2022 года жителям России запретили посещать сайт meteo.paraplan.net по решению Генеральной прокуратуры. Аудитория сайта уменьшилась в 10 раз. Владельцы сайта не видят смысла в поддержке погодного сервера в таких условиях. Сайт будет закрыт в октябре.
темп.,
°C
ветер,
м/с
пор.,
м/с
влажн.,
%
обл.,
%
осадки,
мм/ч
давл.,
гПа
погр.,
м
30 сентября, пт
пт3000:00+3ссв2266100 0.0 102246
03:00+2ссв2367100 0.0 102188
06:00+2ссв2353100 0.0 1022149
09:00+4с3341100 0.0 1023309
12:00+9с4232100 0.0 1021796
15:00+9с6523100 0.0 1021807
18:00+6ссв7921100 0.0 1023515
21:00+4ссв4724100 0.1 1025333
1 октября, сб
сб100:00+1св472978 0.1 1027188
03:00−2св36385 0.0 1028118
06:00−4св12475 0.0 103031
09:00+1с23345 0.0 1030366
12:00+9ссв661622 0.0 1026971
15:00+12ссв99110 0.0 10231176
18:00+8св912160 0.0 1024390
21:00+3всв36250 0.0 102787
2 октября, вс
вс200:00+1св22290 0.0 102817
03:000св22290 0.0 102712
06:000св11290 0.0 102711
09:00+7с22170 0.0 1026211
12:00+14ссз43110 0.0 1023724
15:00+16ссв6680 0.0 10211133
18:00+12св711140 0.0 1020292
21:00+6в22200 0.0 102213
3 октября, пн
пн300:00+6всв22220 0.0 102111
03:00+7в222223 0.0 101911
06:00+7всв112166 0.0 101910
09:00+13с111518 0.0 1018179
12:00+19ссз421094 0.0 1016835
15:00+20с541016 0.0 10151023
18:00+16с471567 0.0 1015130
21:00+11вюв1120100 0.0 101711
4 октября, вт
вт400:00+10ююв1123100 0.0 101811
03:00+10ююв1123100 0.0 101810
06:00+11в1122100 0.0 101810
09:00+15зюз011784 0.0 1019196
12:00+21зсз43155 0.0 1018971
15:00+22ссз541580 0.0 10171394
18:00+17с3421100 0.0 102062
21:00+13вюв222795 0.0 102213